TimeCST,TemperatureF,Dew PointF,Humidity,Sea Level PressureIn,VisibilityMPH,Wind Direction,Wind SpeedMPH,Gust SpeedMPH,PrecipitationIn,Events,Conditions,WindDirDegrees,DateUTC
12:15 AM,37.4,26.6,65,30.24,10.0,Calm,Calm,-,N/A,,Clear,0,2013-03-09 06:15:00
12:35 AM,39.2,26.6,61,30.23,10.0,Calm,Calm,-,N/A,,Clear,0,2013-03-09 06:35:00
12:55 AM,37.4,26.6,65,30.23,10.0,Calm,Calm,-,N/A,,Clear,0,2013-03-09 06:55:00
1:15 AM,39.2,26.6,61,30.23,10.0,Calm,Calm,-,N/A,,Clear,0,2013-03-09 07:15:00
1:35 AM,37.4,28.4,70,30.23,10.0,Calm,Calm,-,N/A,,Clear,0,2013-03-09 07:35:00
1:55 AM,37.4,28.4,70,30.22,10.0,Calm,Calm,-,N/A,,Clear,0,2013-03-09 07:55:00
2:15 AM,39.2,26.6,61,30.21,10.0,Calm,Calm,-,N/A,,Clear,0,2013-03-09 08:15:00
2:35 AM,39.2,26.6,61,30.21,10.0,Calm,Calm,-,N/A,,Clear,0,2013-03-09 08:35:00
2:55 AM,39.2,26.6,61,30.21,10.0,Calm,Calm,-,N/A,,Clear,0,2013-03-09 08:55:00
3:15 AM,41.0,24.8,53,30.22,10.0,Calm,Calm,-,N/A,,Clear,0,2013-03-09 09:15:00
3:35 AM,35.6,28.4,75,30.22,10.0,Calm,Calm,-,N/A,,Clear,0,2013-03-09 09:35:00
3:55 AM,35.6,28.4,75,30.22,10.0,Calm,Calm,-,N/A,,Clear,0,2013-03-09 09:55:00
4:15 AM,35.6,28.4,75,30.22,10.0,Calm,Calm,-,N/A,,Clear,0,2013-03-09 10:15:00
4:35 AM,35.6,28.4,75,30.24,10.0,Calm,Calm,-,N/A,,Clear,0,2013-03-09 10:35:00
4:55 AM,35.6,28.4,75,30.24,10.0,Calm,Calm,-,N/A,,Clear,0,2013-03-09 10:55:00
5:15 AM,35.6,30.2,81,30.25,10.0,Calm,Calm,-,N/A,,Clear,0,2013-03-09 11:15:00
5:35 AM,35.6,30.2,81,30.25,10.0,Calm,Calm,-,N/A,,Clear,0,2013-03-09 11:35:00
5:55 AM,42.8,24.8,49,30.26,10.0,Calm,Calm,-,N/A,,Clear,0,2013-03-09 11:55:00
6:15 AM,44.6,23.0,43,30.26,10.0,Calm,Calm,-,N/A,,Clear,0,2013-03-09 12:15:00
6:35 AM,44.6,21.2,39,30.25,10.0,North,4.6,-,N/A,,Clear,10,2013-03-09 12:35:00
6:55 AM,46.4,21.2,37,30.26,10.0,NNE,4.6,-,N/A,,Clear,20,2013-03-09 12:55:00
7:15 AM,46.4,21.2,37,30.27,10.0,Calm,Calm,-,N/A,,Clear,0,2013-03-09 13:15:00
7:35 AM,46.4,21.2,37,30.27,10.0,NNE,4.6,-,N/A,,Clear,30,2013-03-09 13:35:00
7:55 AM,48.2,21.2,34,30.27,10.0,ENE,4.6,17.3,N/A,,Clear,60,2013-03-09 13:55:00
8:15 AM,50.0,23.0,35,30.26,10.0,East,9.2,17.3,N/A,,Clear,90,2013-03-09 14:15:00
8:35 AM,50.0,21.2,32,30.27,10.0,East,8.1,17.3,N/A,,Clear,90,2013-03-09 14:35:00
8:55 AM,51.8,23.0,33,30.27,10.0,Calm,Calm,-,N/A,,Clear,0,2013-03-09 14:55:00
9:15 AM,51.8,23.0,33,30.28,10.0,Calm,Calm,-,N/A,,Clear,0,2013-03-09 15:15:00
9:35 AM,51.8,23.0,33,30.28,10.0,Calm,Calm,-,N/A,,Clear,0,2013-03-09 15:35:00
9:55 AM,51.8,23.0,33,30.28,10.0,SSW,5.8,-,N/A,,Clear,200,2013-03-09 15:55:00
10:15 AM,53.6,24.8,33,30.27,10.0,South,3.5,-,N/A,,Clear,170,2013-03-09 16:15:00
10:35 AM,53.6,23.0,30,30.26,10.0,Calm,Calm,-,N/A,,Clear,0,2013-03-09 16:35:00
10:55 AM,53.6,23.0,30,30.25,10.0,SE,5.8,-,N/A,,Clear,130,2013-03-09 16:55:00
11:15 AM,53.6,24.8,33,30.25,10.0,Calm,Calm,-,N/A,,Clear,0,2013-03-09 17:15:00
11:35 AM,55.4,24.8,31,30.24,10.0,Calm,Calm,-,N/A,,Clear,0,2013-03-09 17:35:00
11:55 AM,55.4,26.6,33,30.24,10.0,Calm,Calm,-,N/A,,Clear,0,2013-03-09 17:55:00
12:15 PM,57.2,24.8,29,30.24,10.0,Calm,Calm,-,N/A,,Clear,0,2013-03-09 18:15:00
12:35 PM,59.0,26.6,29,30.22,10.0,ESE,5.8,-,N/A,,Clear,110,2013-03-09 18:35:00
12:55 PM,59.0,26.6,29,30.22,10.0,SE,5.8,-,N/A,,Clear,130,2013-03-09 18:55:00
1:15 PM,59.0,24.8,27,30.21,10.0,SSW,6.9,-,N/A,,Clear,200,2013-03-09 19:15:00
1:35 PM,60.8,26.6,27,30.21,10.0,South,5.8,-,N/A,,Clear,190,2013-03-09 19:35:00
1:55 PM,60.8,26.6,27,30.20,10.0,Calm,Calm,-,N/A,,Clear,0,2013-03-09 19:55:00
2:15 PM,60.8,24.8,25,30.19,10.0,Calm,Calm,-,N/A,,Clear,0,2013-03-09 20:15:00
2:35 PM,62.6,26.6,26,30.19,10.0,Calm,Calm,-,N/A,,Clear,0,2013-03-09 20:35:00
2:55 PM,60.8,26.6,27,30.18,10.0,Calm,Calm,-,N/A,,Clear,0,2013-03-09 20:55:00
3:15 PM,60.8,26.6,27,30.18,10.0,South,4.6,-,N/A,,Clear,180,2013-03-09 21:15:00
3:35 PM,60.8,26.6,27,30.17,10.0,SSE,5.8,-,N/A,,Clear,150,2013-03-09 21:35:00
3:55 PM,60.8,26.6,27,30.16,10.0,SE,3.5,-,N/A,,Clear,140,2013-03-09 21:55:00
4:15 PM,62.6,26.6,26,30.16,10.0,South,6.9,-,N/A,,Clear,180,2013-03-09 22:15:00
4:35 PM,60.8,26.6,27,30.16,10.0,SE,3.5,-,N/A,,Clear,140,2013-03-09 22:35:00
4:55 PM,60.8,26.6,27,30.16,10.0,Calm,Calm,-,N/A,,Clear,0,2013-03-09 22:55:00
5:15 PM,60.8,26.6,27,30.17,10.0,SE,3.5,-,N/A,,Clear,130,2013-03-09 23:15:00
5:35 PM,59.0,26.6,29,30.16,10.0,Calm,Calm,-,N/A,,Clear,0,2013-03-09 23:35:00
5:55 PM,59.0,26.6,29,30.16,10.0,ESE,3.5,-,N/A,,Clear,120,2013-03-09 23:55:00
6:15 PM,59.0,26.6,29,30.16,10.0,Calm,Calm,-,N/A,,Clear,0,2013-03-10 00:15:00
6:35 PM,57.2,26.6,31,30.17,10.0,Calm,Calm,-,N/A,,Clear,0,2013-03-10 00:35:00
6:55 PM,57.2,26.6,31,30.17,10.0,Calm,Calm,-,N/A,,Clear,0,2013-03-10 00:55:00
7:15 PM,57.2,26.6,31,30.16,10.0,Calm,Calm,-,N/A,,Clear,0,2013-03-10 01:15:00
7:35 PM,55.4,26.6,33,30.16,10.0,ESE,6.9,-,N/A,,Clear,110,2013-03-10 01:35:00
7:55 PM,55.4,26.6,33,30.15,10.0,East,5.8,-,N/A,,Clear,100,2013-03-10 01:55:00
8:15 PM,55.4,26.6,33,30.16,10.0,Calm,Calm,-,N/A,,Clear,0,2013-03-10 02:15:00
8:35 PM,55.4,26.6,33,30.16,10.0,East,4.6,-,N/A,,Clear,90,2013-03-10 02:35:00
8:55 PM,55.4,26.6,33,30.16,10.0,East,3.5,-,N/A,,Clear,80,2013-03-10 02:55:00
9:15 PM,55.4,26.6,33,30.16,10.0,Calm,Calm,-,N/A,,Clear,0,2013-03-10 03:15:00
9:35 PM,55.4,26.6,33,30.15,10.0,Calm,Calm,-,N/A,,Clear,0,2013-03-10 03:35:00
9:55 PM,55.4,26.6,33,30.15,10.0,SE,4.6,-,N/A,,Clear,140,2013-03-10 03:55:00
10:15 PM,57.2,26.6,31,30.13,10.0,SE,8.1,23.0,N/A,,Clear,130,2013-03-10 04:15:00
10:35 PM,55.4,26.6,33,30.13,10.0,WSW,3.5,-,N/A,,Clear,250,2013-03-10 04:35:00
10:55 PM,55.4,26.6,33,30.12,10.0,North,3.5,-,N/A,,Clear,350,2013-03-10 04:55:00
11:15 PM,55.4,26.6,33,30.12,10.0,Calm,Calm,-,N/A,,Clear,0,2013-03-10 05:15:00
11:35 PM,55.4,26.6,33,30.11,10.0,North,3.5,-,N/A,,Clear,360,2013-03-10 05:35:00
11:55 PM,55.4,26.6,33,30.11,10.0,Calm,Calm,-,N/A,,Clear,0,2013-03-10 05:55:00